Preview of NWS' New Version of Forecast
This preview is not operational and should not be used for support decisions.

Regional Weather Roundup (RWR)

Issued by National Weather Service (NWS)

                            
000
ASUS42 KTBW 210217
RWRFL 
FLORIDA REGIONAL WEATHER ROUNDUP
NATIONAL WEATHER SERVICE TAMPA BAY RUSKIN FL
1000 PM EDT SAT JUL 20 2019

NOTE: "FAIR" INDICATES FEW OR NO CLOUDS BELOW 12,000 FEET WITH NO
SIGNIFICANT WEATHER AND/OR OBSTRUCTIONS TO VISIBILITY.

FLZ001>010-012>015-112-114-115-210300-
PANHANDLE FLORIDA
  
CITY           SKY/WX    TMP DP  RH WIND       PRES   REMARKS
PENSACOLA      FAIR      80  74  81 S3        30.03R                  
PENSACOLA NAS  FAIR      77  74  90 CALM      30.02R                  
MILTON NAS     FAIR      75  72  90 E3          N/A                   
CRESTVIEW      MOCLDY    78  71  79 SW3       30.05R                  
DUKE FIELD     FAIR      78  73  84 SW3       30.03S                  
VALPARAISO     FAIR      79  73  81 CALM      30.03R                  
MARY ESTHER    PTCLDY    77  73  87 CALM      30.02R                  
TRI COUNTY     FAIR      77  73  87 CALM      30.04S                  
PANAMA CITY    FAIR      77  73  87 CALM      30.03S                  
TYNDALL AFB    FAIR      78  72  80 CALM      30.03S                  
APALACHICOLA   FAIR      78  73  84 CALM      30.04S                  

STATION/POSITION SKY/WX   TEMP    WIND        PRES    WAVE   SWELL
                          AIR SEA DIR/SP/G            HT/PER HT/PER
                          (F)     (DEG/KT/KT) (MB)    (FT/S) (FT/S)
30.1N   87.6W              82 86  260/  4/  6 1016.3R   2/ 4   2/ 4
29.2N   88.2W              81 85  200/  4/  6 1016.5R   1/ 9
28.8N   86.0W                 86  120/  4/  4 1017.2R   1/ 5   2/ 5
PANAMA CITY BEAC                  250/  7/  8   N/A
TOWER C                    81     140/  2/  3 1017.7R
28.5N   84.5W              82      40/  4/  6 1018.1R   1/ 4

$$
FLZ011-016>038-118-127-128-134-139-239-210300-
NORTH FLORIDA
  
CITY           SKY/WX    TMP DP  RH WIND       PRES   REMARKS
MARIANNA       MOCLDY    80  75  84 S6        30.03R                  
TALLAHASSEE    FAIR      77  74  90 CALM      30.04S                  
PERRY          FAIR      79  77  92 SE3       30.05R                  
LIVE OAK       MOCLDY    81  75  83 SE5       30.07R                  
CROSS CITY     FAIR      77  73  89 SE6       30.07R                  
LAKE CITY      FAIR      73  72  94 CALM      30.07R                  
GAINESVILLE    FAIR      74  72  93 S3        30.10R                  
WILLISTON      MOCLDY    74  74  97 CALM      30.08R                  
PALATKA        FAIR      75  72  88 CALM      30.08R                  
MAYPORT NAS    FAIR      78  69  73 NW8       30.09R THUNDER          
JACKSONVILLE   CLOUDY    73  71  93 E8        30.07F                  
JAX NAS        MOCLDY    80  73  79 N10       30.08R                  
JAX CECIL      NOT AVBL                                               
FERNANDINA BEA MOCLDY    74  72  93 W5        30.08F                  
ST AUGUSTINE   FAIR      82  74  76 CALM      30.08R                  
PALM COAST     FAIR      78  74  86 CALM      30.07S                  

STATION/POSITION SKY/WX   TEMP    WIND        PRES    WAVE   SWELL
                          AIR SEA DIR/SP/G            HT/PER HT/PER
                          (F)     (DEG/KT/KT) (MB)    (FT/S) (FT/S)
SHELL POINT                84 83   10/  3/  3 1016.5
KEATON BEACH               83      70/  3/  4 1017.6R
CEDAR KEY                  81     190/ 17/ 19 1017.6S
FERNANDINA                 79 86  200/  6/ 12 1019.8R
30.7N   81.3W                 84                N/A     2/ 8
MAYPORT                    79 85  320/  9/ 13 1019.2R
31.4N   80.9W              84 84  190/ 17/ 19 1017.4R   2/ 9   2/ 9
ST AUGUSTINE               82 79  280/  3/  4 1018.3R

$$
FLZ040-043>046-052-053-057-058-063-144-210300-
INTERIOR CENTRAL FLORIDA
  
CITY           SKY/WX    TMP DP  RH WIND       PRES   REMARKS
OCALA          FAIR      73  72  96 CALM      30.07S                  
LEESBURG       FAIR      77  73  87 CALM      30.06F                  
SANFORD        FAIR      81  74  79 NW5       30.06S                  
ORLANDO EXEC   FAIR      83  72  69 N5        30.06S                  
ORLANDO INTL   MOCLDY    80  73  79 CALM      30.06F                  
KISSIMMEE      FAIR      80  75  84 CALM      30.08R                  
WINTER HAVEN   FAIR      77  74  90 NE3       30.07S                  
LAKELAND       CLEAR     75  72  88 NE5       30.07S                  
BARTOW         FAIR      75  75 100 E3        30.06R                  
SEBRING        TSTM      76  74  93 SW6       30.08R                  
OKEECHOBEE     MOCLDY    77  73  88 W3        30.07R                  

$$
FLZ041-047-054-059-064-141-147-210300-
EAST CENTRAL FLORIDA
  
CITY           SKY/WX    TMP DP  RH WIND       PRES   REMARKS
DAYTONA BEACH  FAIR      81  77  88 CALM      30.07S                  
DELAND         FAIR      79  73  83 CALM      30.07R                  
NEW SMYRNA BEA CLEAR     81  75  83 CALM      30.08R                  
JFK SPACE CTR  CLEAR     79  67  65 SE5       30.06R HAZE             
CAPE CANAVERAL CLEAR     79  57  46 SE5       30.06R                  
PATRICK AFB    FAIR      82  80  95 SE6       30.07R                  
MELBOURNE      FAIR      83  75  77 SE5       30.07R                  
VERO BEACH     FAIR      80  77  90 E5        30.07R                  
FT PIERCE      FAIR      81  74  79 E3        30.07R                  
STUART         FAIR      81  72  74 CALM      30.07S                  

STATION/POSITION SKY/WX   TEMP    WIND        PRES    WAVE   SWELL
                          AIR SEA DIR/SP/G            HT/PER HT/PER
                          (F)     (DEG/KT/KT) (MB)    (FT/S) (FT/S)
28.5N   80.2W              83 84  140/  8/ 10 1018.0R   2/ 8   2/ 8
28.9N   78.5W              85 86  170/  6/  8 1019.1    3/ 8   2/ 8
TRIDENT PIER               81 83  120/  4/  5 1019.4S
28.4N   80.5W                 82                N/A     1/ 9
27.5N   80.2W                 83                N/A     2/ 8

$$
FLZ050-056-061-142-242-148-248-149-249-151-251-155-255-
160-260-210300-
WEST CENTRAL FLORIDA
  
CITY           SKY/WX    TMP DP  RH WIND       PRES   REMARKS
CRYSTAL RIVER  FAIR      73  72  94 CALM      30.05F                  
INVERNESS      FAIR      73  73 100 CALM      30.06F                  
BROOKSVILLE    FAIR      75  73  93 E6        30.06F                  
CLEARWATER AIR DRIZZLE   73  72  94 CALM      30.04F                  
ST PETE CLEARW LGT RAIN  76  73  91 CALM      30.05F                  
TAMPA INTL     CLOUDY    77  72  84 SE3       30.06S                  
TAMPA EXEC     FAIR      73  72  94 CALM      30.06S                  
PLANT CITY     FAIR     N/A N/A N/A MISG      30.08R                  
MACDILL AFB    FAIR      76  73  88 S3        30.06R                  
PETER O KNIGHT CLOUDY   N/A N/A N/A CALM      30.06S                  
ST PETERSBURG  FAIR      79  74  84 NE5       30.04S                  
SARASOTA       FAIR      74  71  91 N6        30.03F                  
VENICE         FAIR      75  72  88 NE9       30.05R                  

STATION/POSITION SKY/WX   TEMP    WIND        PRES    WAVE   SWELL
                          AIR SEA DIR/SP/G            HT/PER HT/PER
                          (F)     (DEG/KT/KT) (MB)    (FT/S) (FT/S)
27.3N   84.2W                 87                N/A     1/ 4
CLEARWATER BEACH           77 89   90/  5/  9 1017.9F
MIDDLE TAMPA BAY           76      60/  5/  6 1018.2S
VENICE                     76 87   50/  8/ 10 1017.4R

$$
FLZ066-069-070-075>078-162-262-165-265-210300-
SOUTHWEST FLORIDA AND KEYS
  
CITY           SKY/WX    TMP DP  RH WIND       PRES   REMARKS
PUNTA GORDA    FAIR      75  73  93 CALM      30.07R                  
FT MYERS       FAIR      76  73  91 NE7       30.04S                  
SOUTHWEST INTL FAIR      76  73  91 NE7       30.04F                  
MARCO ISLAND   FAIR      79  77  94 MISG      30.06R                  
IMMOKALEE      FAIR      75  73  94 NE6       30.03S                  
MARATHON       FAIR      85  74  69 E6        30.01F                  
KEY WEST NAS   MOCLDY    83  72  69 E15G36    30.01F THUNDER          
KEY WEST INTL  FAIR      84  76  76 E17       30.02S THUNDER          

STATION/POSITION SKY/WX   TEMP    WIND        PRES    WAVE   SWELL
                          AIR SEA DIR/SP/G            HT/PER HT/PER
                          (F)     (DEG/KT/KT) (MB)    (FT/S) (FT/S)
NAPLES                     79 87              1017.1R
26.0N   85.6W              85 86   90/ 10/ 12 1016.1F   2/ 5   2/ 6
DRY TORTUGAS               85      60/  8/  9 1016.3F
SAND KEY                   85     110/ 10/ 13 1015.2
SOMBRERO KEY               85     100/ 10/ 13 1016.5
LONG KEY                   85                 1015.9

$$
FLZ067-068-071>074-168-172>174-210300-
SOUTHEAST FLORIDA 
  
CITY           SKY/WX    TMP DP  RH WIND       PRES   REMARKS
W PALM BEACH   MOCLDY    83  75  77 SE7       30.06R                  
BOCA RATON     PTCLDY    79  75  89 CALM      30.06R                  
FT LAUDER-EXEC FAIR      83  72  69 SE3       30.05S                  
FT LAUDERDALE  FAIR      84  73  69 CALM      30.04F                  
POMPANO BEACH  FAIR      84  73  69 SE5       30.05S                  
PEMBROKE PINES FAIR      83  73  72 CALM      30.07R                  
OPA LOCKA      FAIR      82  74  76 E3        30.06R                  
MIAMI          MOCLDY    84  75  74 E6        30.05R                  
WEST KENDALL   FAIR      83  76  79 SE5       30.05R                  
HOMESTEAD      FAIR      83  77  82 SE3       30.04R                  

STATION/POSITION SKY/WX   TEMP    WIND        PRES    WAVE   SWELL
                          AIR SEA DIR/SP/G            HT/PER HT/PER
                          (F)     (DEG/KT/KT) (MB)    (FT/S) (FT/S)
PORT EVERGLADES            84     130/  3/  5 1017.6
VIRGINIA KEY               84 89  100/  8/  9 1016.9F
LAKE WORTH                 83 85  150/  8/  9 1019.0R
FOWEY ROCKS                84 85  110/  9/ 10 1017.6R
SETTLEMENT POINT           84     120/  5/  6 1018.5R

$$